Temperature
19 19 19 19 19 20 22 26 27 26 27 26 26 27 26 26 24 22 22 22 22 21 22 22 22 21 21 20 20 19 19 19 18 18 17 17 17 17 17 17 17 17 17 17 17 17 17 17 17
20 19 20 20 20 21 24 25 26 26 26 26 26 26 27 26 25 23 22 22 22 21 21 22 21 21 21 21 20 20 19 19 18 18 18 17 17 16 16 17 17 16 16 17 17 17 17 17 17
20 19 20 20 21 23 24 25 25 26 26 26 27 26 26 25 25 23 22 22 22 21 21 21 21 21 21 21 21 20 20 19 19 18 17 17 17 17 17 17 16 16 16 17 17 17 16 16 16
19 20 21 21 22 25 25 25 25 26 26 26 26 27 26 25 24 23 22 22 22 22 21 21 20 20 20 20 20 20 20 20 19 19 18 17 17 17 17 17 16 16 16 16 16 16 17 16 16
19 20 21 21 23 26 26 26 25 25 26 27 26 26 25 24 23 22 22 22 22 22 21 21 20 20 20 20 20 20 20 19 19 19 18 17 17 17 17 16 16 16 16 16 16 16 17 17 16
20 22 21 21 24 26 26 26 25 25 26 27 26 26 24 23 23 23 22 22 21 21 21 20 20 20 20 20 19 19 19 19 19 19 18 17 17 17 17 16 16 16 16 16 16 16 16 16 16
20 20 20 22 23 25 25 25 25 23 24 25 24 25 25 22 22 22 22 21 21 21 20 19 19 19 19 19 19 18 18 18 18 18 18 17 17 17 17 17 16 16 16 16 16 16 16 16 16
20 20 21 23 23 24 24 24 24 24 23 24 24 24 24 22 22 22 21 21 20 20 19 19 19 19 18 18 18 17 17 17 17 17 17 17 17 17 17 17 16 16 15 15 16 16 16 16 16
19 19 20 22 22 23 24 23 24 23 24 24 25 24 24 23 22 21 21 20 20 20 19 19 19 18 18 17 17 17 16 16 16 17 17 16 16 17 16 16 15 15 15 15 15 16 16 16 16
20 19 22 23 22 22 22 22 23 23 23 24 24 23 22 22 21 21 21 21 21 20 19 18 18 18 18 17 17 16 16 16 15 16 16 15 15 15 15 15 14 14 15 15 15 16 16 16 16
22 21 22 23 23 22 22 22 22 22 21 22 22 21 21 21 21 21 21 21 21 20 19 18 17 17 18 17 17 16 16 15 15 15 15 15 14 14 14 14 14 14 14 15 16 16 16 16 16
22 22 23 23 22 21 21 21 21 22 22 22 21 20 20 20 20 20 20 20 19 18 18 17 16 17 17 17 16 16 16 15 15 15 15 15 15 14 14 14 14 14 14 14 14 15 15 16 16
22 22 22 22 22 22 21 21 21 21 21 21 20 19 18 18 18 19 19 19 19 18 17 16 16 16 16 16 16 16 15 15 15 15 15 14 14 14 14 14 14 14 13 13 13 14 14 14 15
21 21 21 22 22 21 20 20 21 20 20 19 18 16 16 16 16 17 17 17 17 17 17 16 15 15 15 15 15 15 15 15 15 15 14 14 14 14 14 14 13 13 13 13 13 13 13 14 14
21 20 20 22 22 21 20 19 19 19 18 18 17 15 14 14 14 14 15 15 15 16 16 15 15 15 14 14 15 15 15 15 15 15 14 14 14 14 13 13 13 13 13 13 13 13 13 13 14
21 20 20 21 22 21 20 18 18 18 17 16 16 15 14 13 12 12 12 13 14 14 14 14 14 14 14 14 14 14 14 14 14 14 14 14 14 13 13 13 13 13 13 13 13 13 13 13 13
21 20 20 21 21 21 20 18 17 17 16 15 14 14 13 12 11 11 11 11 12 13 13 14 13 13 13 13 13 13 13 14 14 14 13 13 13 13 13 13 12 12 12 12 12 12 12 12 13
18 18 19 19 20 19 18 17 16 16 15 14 13 13 12 11 10 10 10 10 11 11 12 13 13 13 12 12 12 12 13 13 13 13 13 13 13 13 12 12 12 12 12 12 12 12 12 12 12
18 18 18 20 20 19 18 17 15 14 13 13 12 11 11 10 10 9 9 9 9 9 10 11 11 12 12 12 11 11 12 12 12 12 12 12 12 12 12 12 12 12 12 11 11 11 11 12 12
18 18 18 19 19 18 17 16 14 13 12 12 11 11 10 10 9 9 8 8 8 7 7 8 8 9 10 10 10 10 11 11 11 11 12 12 11 11 11 11 11 11 11 11 11 11 11 11 11
17 17 16 16 16 17 17 15 12 12 12 12 11 10 10 9 9 9 8 8 7 7 6 6 6 7 7 8 8 9 9 10 10 11 11 11 11 10 10 10 10 10 10 10 10 10 10 10 10
16 17 16 15 14 15 17 14 11 11 11 11 10 10 10 9 9 8 8 7 7 7 6 6 6 6 6 6 7 7 8 8 9 10 10 10 10 10 10 10 10 10 10 10 9 9 9 9 9
15 15 15 15 14 14 15 15 13 12 10 10 10 10 9 9 8 8 8 7 7 7 6 6 6 6 5 5 6 6 7 7 8 9 9 10 10 9 9 9 9 9 9 9 9 9 9 9 9
16 15 16 16 15 14 16 15 13 10 9 9 10 10 9 9 8 8 7 7 7 6 6 6 6 6 5 5 4 5 5 6 7 8 9 9 9 9 9 9 8 8 8 8 8 8 8 8 8
15 13 14 14 14 15 16 15 10 9 10 10 10 9 9 8 8 7 7 7 6 6 6 6 6 5 5 4 4 4 4 5 6 7 8 8 8 9 9 8 8 8 8 8 8 8 7 7 7
14 14 12 11 13 14 15 13 8 10 11 10 9 9 8 7 7 7 6 6 6 6 5 5 5 5 4 3 3 3 3 3 4 5 7 7 8 7 8 8 7 7 7 7 7 7 7 7 7
13 13 13 12 12 12 14 7 8 11 10 10 9 8 7 7 6 6 5 5 5 4 4 4 4 4 3 3 2 2 2 2 3 4 5 6 7 7 6 6 7 7 6 6 6 6 6 6 6
14 13 11 12 11 10 12 13 9 9 8 8 7 7 6 6 5 5 4 4 3 3 2 2 2 2 2 2 1 0 0 1 1 2 4 5 6 6 5 5 5 5 5 5 5 5 6 6 6
12 13 12 11 11 10 9 10 10 8 7 6 6 6 6 5 4 4 3 2 2 1 1 1 1 1 1 1 -0 -0 -1 -1 -0 1 2 3 4 5 5 4 3 3 4 4 4 5 5 5 5
12 12 11 9 9 9 8 9 10 8 7 7 6 5 5 4 4 3 2 1 0 -0 -0 -0 -0 -0 -1 -1 -1 -2 -2 -2 -2 -1 0 2 2 3 3 3 2 2 2 3 4 4 4 4 3
Wind_Speed
12 14 9 3 4 5 9 2 6 7 5 9 7 5 6 7 8 5 4 5 6 10 14 13 12 10 9 8 7 6 5 4 4 2 2 1 2 3 2 3 4 5 5 5 5 5 5 5 5
10 11 6 4 4 6 4 6 4 8 8 4 0 3 5 7 8 9 6 6 4 8 13 14 14 10 9 8 8 7 6 6 5 4 3 2 1 1 2 4 5 5 5 4 4 4 4 4 5
8 11 5 4 5 4 7 9 9 6 3 2 3 1 4 6 7 6 6 5 3 7 10 15 17 12 9 9 8 8 7 7 5 5 5 4 2 1 3 3 3 3 3 2 2 3 3 4 4
7 5 4 5 12 5 6 8 8 6 2 2 5 5 6 7 5 7 6 4 5 8 12 17 16 12 10 9 9 9 9 8 8 7 6 5 4 2 2 1 1 2 2 1 2 2 3 3 4
4 4 6 8 11 2 4 8 4 6 5 2 3 7 4 6 10 9 7 2 3 3 12 16 15 12 10 9 9 9 9 9 9 8 6 6 6 4 2 2 1 2 1 1 2 3 4 4 5
4 4 6 7 5 4 4 8 4 6 7 5 3 6 5 8 11 8 5 1 2 5 7 13 14 12 10 9 9 9 10 10 10 9 6 5 5 5 5 4 4 4 2 1 2 3 4 5 6
4 5 7 9 7 5 6 8 8 10 11 9 8 9 4 9 8 6 5 3 6 8 4 4 11 12 11 11 11 10 10 10 10 9 7 5 5 6 6 5 5 6 5 3 1 3 4 6 7
4 4 8 5 4 5 8 5 4 6 8 6 2 5 4 6 5 3 4 2 4 3 2 4 2 9 12 13 14 13 10 9 8 8 8 7 6 7 8 7 7 7 6 5 3 3 5 6 6
4 4 5 6 7 7 8 8 9 7 6 7 4 4 3 9 6 2 2 4 6 6 3 2 5 5 1 6 13 13 11 9 8 8 10 8 7 10 12 15 12 9 7 6 5 5 5 6 8
4 3 5 6 6 8 9 9 9 7 8 10 10 12 10 4 1 3 6 7 2 5 7 6 6 6 5 4 5 9 11 11 11 11 13 11 11 11 8 10 12 10 9 9 10 11 9 8 9
5 5 7 6 6 6 8 10 9 10 9 9 10 12 12 9 8 6 6 6 7 9 9 7 6 5 5 3 2 2 2 5 9 11 8 10 8 5 2 5 9 10 11 9 12 12 10 10 9
5 8 8 6 7 6 8 9 9 9 8 9 10 9 9 10 11 11 8 8 8 9 9 7 7 5 5 4 2 2 2 1 2 3 1 1 1 2 2 2 3 5 6 6 6 4 7 9 11
8 7 7 6 5 7 8 8 8 6 8 11 11 14 16 16 14 12 11 10 9 7 8 7 5 6 5 4 4 3 4 2 1 2 1 3 2 3 4 3 2 3 4 2 5 5 6 7 7
7 9 10 10 7 3 6 9 5 8 11 14 18 19 19 19 19 16 14 12 11 10 9 8 8 9 7 5 4 4 3 1 2 1 3 5 3 3 3 3 4 3 3 3 4 5 6 7 6
6 10 11 5 2 4 4 6 10 11 14 16 16 16 18 19 20 19 18 16 15 13 11 9 8 9 10 9 6 5 4 4 3 2 4 5 5 4 5 4 4 4 5 5 4 6 5 4 2
9 8 4 6 2 3 4 4 10 11 15 14 13 13 14 17 19 19 21 20 19 18 16 14 10 8 9 10 7 6 4 5 4 4 4 6 7 5 4 4 4 4 4 4 4 5 5 4 3
4 7 8 4 5 5 5 3 9 11 14 13 12 12 13 16 19 19 20 20 20 21 20 18 15 12 9 9 7 7 6 6 4 4 3 5 6 7 3 3 4 4 4 3 4 4 4 4 4
10 10 9 9 5 7 6 2 9 11 14 12 12 12 13 16 17 16 18 18 18 19 19 19 19 17 15 10 7 6 6 5 5 4 4 5 5 7 4 4 5 4 3 3 3 4 4 3 4
8 9 11 8 5 5 6 2 10 11 12 12 11 12 12 13 13 14 15 15 16 17 18 18 18 18 16 12 10 8 6 6 6 5 5 5 6 6 4 3 3 2 2 2 3 3 3 2 1
9 10 8 7 12 12 9 1 12 12 12 11 10 11 12 12 13 13 14 14 14 14 14 15 15 15 15 13 13 10 8 6 6 5 4 5 6 6 4 3 3 2 1 3 3 1 0 1 1
10 7 7 10 13 10 7 3 12 11 11 11 11 10 10 12 12 12 12 11 10 10 10 13 12 12 13 15 13 13 10 7 6 5 5 5 6 6 4 3 3 2 1 2 2 1 0 1 1
7 10 11 12 9 6 7 2 10 10 10 10 9 9 9 10 10 10 10 10 10 9 8 10 11 12 12 14 15 18 14 11 10 7 6 8 8 7 4 3 3 3 2 2 2 2 0 2 2
7 12 17 16 9 7 7 6 8 10 8 9 8 9 9 9 10 11 11 10 10 9 9 10 11 11 12 14 15 16 16 13 11 10 9 7 6 6 5 3 3 3 2 2 1 1 1 1 0
9 13 17 7 1 4 2 5 5 4 7 7 8 9 10 10 11 11 11 10 10 11 11 12 11 10 10 12 14 16 19 19 16 13 10 6 4 4 5 4 2 2 1 1 2 2 1 0 0
10 8 6 5 1 2 6 4 6 7 7 7 8 10 11 12 13 13 14 15 15 15 14 13 12 10 9 10 12 15 18 20 18 13 9 7 4 3 5 5 3 2 1 2 2 2 2 1 0
8 6 5 4 5 9 9 1 8 6 5 8 11 12 13 14 14 15 15 15 15 15 15 14 13 10 9 10 12 14 17 16 16 14 8 4 3 4 2 3 3 2 3 3 2 1 2 1 0
6 6 4 4 8 7 2 6 4 4 5 12 14 15 15 15 15 16 16 16 17 17 16 16 16 11 9 10 11 14 16 19 20 19 11 3 2 4 6 5 4 4 3 2 2 1 2 2 1
3 3 5 5 6 7 8 3 5 7 12 15 16 16 16 16 16 16 16 17 18 18 17 17 16 13 10 10 12 16 17 19 20 19 12 5 3 5 3 5 5 4 3 2 1 0 1 2 2
6 3 4 5 5 5 6 3 9 12 13 14 15 16 17 18 18 16 16 17 19 19 18 17 16 15 12 12 13 15 16 18 19 18 13 5 2 5 5 3 2 3 3 3 2 1 1 2 2
2 4 5 5 6 6 7 4 10 14 12 14 17 20 21 20 17 17 19 20 20 20 19 17 15 14 14 14 15 16 17 17 18 18 15 7 2 2 4 5 3 1 0 1 2 3 4 3 3
Wind_Direction
293 272 261 268 256 236 253 80 62 75 48 44 33 350 337 37 39 83 160 85 100 111 128 155 167 176 184 192 199 200 199 202 205 212 231 260 252 233 230 229 223 218 220 227 239 252 254 246 241
293 295 295 247 254 261 229 104 85 65 58 27 255 297 321 79 77 109 127 79 76 114 139 158 164 174 185 194 201 206 208 218 223 238 247 244 323 310 278 263 236 222 225 237 249 261 262 251 235
272 276 276 258 258 300 43 61 55 38 75 331 313 105 36 53 69 88 90 114 190 127 118 140 154 168 185 198 204 209 216 221 230 252 261 229 233 317 306 281 240 215 213 235 258 270 267 256 238
279 271 239 250 277 356 21 56 43 326 150 157 323 317 108 75 64 79 98 149 216 149 125 135 151 165 185 201 210 214 221 223 230 242 253 238 230 250 343 353 128 132 133 182 238 255 258 256 238
248 266 253 261 267 332 20 46 17 296 293 134 50 316 70 93 92 83 83 44 314 70 116 136 150 166 187 204 214 219 225 229 235 237 255 244 220 230 276 303 158 138 141 226 248 256 255 249 239
263 264 275 277 303 50 31 52 327 317 328 355 39 330 79 119 104 87 78 347 44 52 99 139 156 169 188 208 221 227 231 234 240 239 248 237 218 231 249 262 219 189 186 215 262 265 263 256 244
277 282 281 299 333 344 44 24 10 1 341 26 19 332 76 86 93 126 115 43 52 43 39 128 160 175 189 202 213 222 230 236 242 238 238 251 253 248 251 260 232 209 199 197 242 283 280 265 250
316 286 271 275 351 19 54 8 21 8 331 337 3 322 42 109 110 91 86 63 62 59 21 3 246 183 181 196 205 205 213 230 242 238 232 238 250 245 243 242 231 215 200 192 208 248 270 270 253
280 262 292 359 14 6 24 3 344 331 292 296 280 272 66 94 68 24 271 214 196 186 168 116 340 2 11 205 186 192 202 217 231 236 229 228 236 239 231 226 216 190 187 199 215 229 248 262 251
227 276 321 24 360 351 345 333 319 315 322 324 347 10 43 70 124 271 276 277 219 126 75 40 18 9 351 344 133 187 194 196 207 226 216 209 225 241 245 184 179 183 202 217 230 238 241 242 244
240 269 321 339 357 357 326 320 326 329 325 342 13 9 1 351 340 315 303 321 59 65 61 35 27 7 356 343 354 302 224 179 195 224 219 192 211 235 213 160 178 202 216 226 237 232 230 227 228
269 290 302 317 352 332 311 315 315 312 320 18 32 12 358 358 1 353 5 23 56 68 66 37 10 22 16 353 350 317 304 229 210 213 245 185 198 230 252 217 216 213 210 206 223 213 218 223 229
277 279 298 313 298 297 313 305 299 338 25 35 30 27 23 19 10 1 15 21 27 51 77 63 8 12 26 1 326 305 292 303 296 180 201 239 226 231 241 233 227 239 259 235 210 229 242 247 244
318 326 301 285 288 14 338 312 320 18 41 46 50 45 36 28 19 13 12 16 11 21 39 39 19 11 1 332 321 320 329 352 314 301 242 246 233 242 245 250 246 240 247 258 257 243 238 241 234
291 283 276 245 104 68 331 8 46 44 55 56 56 53 44 36 30 24 19 16 12 8 12 15 16 6 343 334 343 343 326 308 305 314 298 284 248 225 234 238 250 236 231 233 243 265 276 273 259
248 257 264 121 111 102 313 26 53 58 66 59 54 53 50 40 34 29 25 21 16 10 5 1 1 356 339 332 338 336 325 328 337 323 314 308 301 272 235 232 251 257 245 235 242 246 266 273 267
294 322 356 46 102 38 356 28 67 64 72 64 51 44 47 43 35 29 27 23 20 14 8 2 356 349 336 324 321 311 300 312 315 308 303 301 308 305 277 245 250 263 261 261 267 258 238 247 251
350 338 338 322 43 21 344 18 87 66 71 63 53 42 39 43 36 29 26 23 21 16 10 5 360 352 343 330 321 316 311 304 297 297 299 299 298 293 282 271 254 253 270 268 267 272 261 237 235
318 306 299 306 71 1 308 330 102 81 69 61 52 47 35 37 35 29 25 21 20 16 9 3 1 355 349 340 330 319 308 302 290 272 271 287 286 286 283 288 304 315 312 291 270 255 267 267 251
299 295 316 348 351 330 287 140 102 84 74 65 55 48 35 25 25 24 23 17 17 13 4 358 358 353 348 339 328 313 300 290 290 298 305 307 298 289 289 292 295 288 336 335 318 323 294 276 214
323 4 350 317 316 280 253 154 114 97 85 75 61 48 40 26 19 16 15 9 6 4 355 353 349 350 347 341 334 328 317 304 291 280 267 262 269 273 270 292 303 314 356 311 298 335 330 278 274
316 356 322 302 309 305 313 248 141 122 94 72 58 41 32 24 14 8 4 359 353 348 340 340 345 348 349 347 341 334 323 310 294 276 247 225 230 251 250 253 285 295 290 278 268 239 116 62 352
306 307 286 274 266 276 257 248 163 140 93 66 49 36 25 19 8 0 354 347 338 333 334 340 343 347 349 346 341 333 325 316 308 302 288 247 216 222 223 218 271 279 281 299 314 22 66 68 34
312 298 287 259 190 271 280 204 113 86 77 60 42 28 17 11 3 353 344 337 331 333 338 339 335 338 341 340 337 332 325 320 313 305 300 286 249 220 203 193 233 267 274 31 36 30 18 309 342
354 343 352 6 254 203 355 300 98 108 92 62 37 21 14 7 358 348 345 343 339 336 334 329 323 324 333 339 336 331 325 319 310 300 298 299 284 245 205 177 187 236 182 105 62 32 1 348 1
325 347 20 325 297 310 302 73 124 136 104 50 32 19 9 2 353 346 343 339 334 330 329 328 324 322 335 341 336 332 326 321 313 303 293 300 327 339 360 111 98 58 56 66 65 25 309 295 285
352 11 349 281 276 272 256 106 181 207 44 28 18 12 3 355 348 346 345 342 339 337 336 335 330 329 337 342 342 333 329 323 317 308 291 271 80 48 20 19 31 34 40 38 37 30 333 328 273
27 320 316 312 317 304 301 0 100 46 24 16 10 4 355 350 350 349 347 346 345 341 337 335 332 333 339 352 347 333 326 322 320 314 288 253 148 109 66 4 1 359 356 359 7 331 339 350 343
348 318 336 314 279 281 298 45 79 49 27 12 3 356 351 350 351 350 349 348 344 339 334 332 333 339 346 349 341 331 326 324 322 320 312 288 178 136 133 107 2 342 355 6 15 352 347 331 304
346 352 355 316 298 313 305 280 74 40 25 10 359 354 351 349 350 352 350 346 342 338 335 335 339 343 348 346 340 334 330 329 326 325 323 319 313 124 126 128 150 176 155 42 47 45 40 32 23
Height
1506 1505 1505 1507 1506 1505 1498 1480 1475 1480 1481 1485 1486 1486 1486 1487 1493 1502 1499 1497 1498 1497 1497 1497 1497 1498 1498 1498 1499 1499 1500 1501 1502 1503 1505 1506 1507 1508 1510 1511 1512 1513 1514 1515 1516 1517 1518 1519 1519
1506 1506 1507 1506 1506 1507 1491 1479 1480 1482 1486 1488 1488 1487 1486 1488 1492 1496 1497 1497 1498 1498 1497 1498 1498 1498 1498 1499 1499 1499 1500 1500 1502 1503 1504 1505 1506 1507 1508 1510 1511 1512 1513 1514 1515 1516 1517 1517 1518
1506 1506 1507 1503 1501 1498 1490 1482 1483 1485 1487 1488 1487 1487 1488 1491 1494 1496 1497 1497 1498 1498 1498 1498 1498 1498 1499 1499 1499 1499 1500 1500 1501 1502 1503 1504 1505 1506 1507 1508 1509 1510 1511 1512 1513 1514 1515 1516 1517
1507 1507 1505 1504 1501 1487 1485 1484 1486 1487 1487 1489 1489 1487 1488 1491 1494 1496 1496 1497 1498 1498 1497 1497 1498 1499 1499 1499 1499 1499 1499 1499 1500 1500 1501 1502 1503 1504 1505 1507 1508 1509 1510 1511 1512 1513 1514 1515 1516
1508 1507 1505 1504 1495 1485 1483 1486 1489 1489 1486 1487 1489 1488 1489 1491 1493 1495 1496 1497 1498 1499 1496 1497 1497 1498 1498 1498 1498 1498 1498 1498 1499 1499 1500 1500 1501 1502 1503 1505 1506 1507 1508 1509 1510 1512 1513 1513 1515
1509 1505 1508 1504 1491 1484 1485 1487 1489 1489 1487 1487 1488 1488 1491 1491 1492 1494 1495 1497 1498 1498 1496 1495 1496 1497 1497 1497 1497 1497 1497 1497 1497 1497 1498 1499 1500 1501 1502 1503 1504 1505 1506 1507 1508 1509 1510 1511 1513
1510 1507 1507 1500 1494 1490 1488 1490 1491 1492 1491 1491 1491 1491 1491 1492 1493 1494 1494 1495 1496 1495 1495 1495 1494 1495 1495 1495 1495 1495 1495 1495 1495 1496 1496 1497 1497 1498 1499 1500 1501 1502 1503 1504 1506 1507 1508 1509 1510
1508 1507 1502 1496 1495 1493 1491 1493 1494 1495 1494 1493 1493 1493 1493 1493 1492 1493 1493 1494 1494 1493 1494 1494 1495 1493 1492 1492 1492 1492 1493 1493 1493 1494 1494 1495 1495 1496 1497 1498 1499 1500 1501 1501 1503 1504 1506 1507 1508
1509 1509 1506 1497 1497 1495 1493 1495 1495 1495 1494 1493 1492 1493 1492 1491 1491 1492 1492 1492 1491 1492 1492 1493 1493 1493 1493 1492 1490 1490 1491 1491 1491 1492 1493 1493 1493 1494 1494 1495 1496 1497 1498 1499 1500 1501 1502 1504 1505
1508 1510 1501 1497 1497 1497 1497 1497 1496 1494 1494 1493 1492 1492 1492 1492 1492 1492 1493 1493 1493 1493 1492 1492 1492 1491 1491 1491 1490 1489 1489 1489 1490 1490 1491 1491 1492 1492 1494 1494 1494 1495 1495 1496 1497 1498 1499 1500 1501
1504 1504 1499 1497 1497 1499 1499 1498 1497 1496 1495 1494 1493 1493 1492 1492 1493 1493 1493 1493 1492 1491 1491 1492 1491 1490 1490 1490 1490 1490 1489 1489 1489 1489 1490 1490 1491 1492 1493 1493 1493 1493 1493 1493 1493 1494 1495 1497 1498
1503 1501 1499 1498 1498 1499 1499 1498 1498 1497 1497 1496 1495 1495 1494 1493 1493 1493 1493 1493 1492 1492 1492 1493 1492 1491 1490 1489 1489 1489 1489 1489 1489 1489 1490 1490 1490 1490 1490 1490 1490 1490 1490 1489 1489 1490 1491 1493 1494
1500 1499 1498 1498 1498 1498 1498 1497 1496 1496 1495 1495 1496 1495 1494 1493 1493 1494 1493 1494 1494 1494 1493 1493 1493 1492 1491 1490 1489 1489 1488 1489 1489 1488 1488 1488 1488 1487 1488 1488 1487 1488 1488 1488 1488 1488 1488 1489 1491
1500 1499 1498 1497 1497 1498 1499 1497 1496 1498 1496 1497 1497 1498 1498 1497 1496 1495 1494 1494 1495 1495 1494 1493 1493 1492 1491 1491 1490 1490 1489 1488 1487 1487 1486 1486 1485 1485 1485 1485 1484 1484 1484 1485 1485 1485 1486 1486 1487
1500 1499 1495 1493 1495 1496 1499 1500 1500 1500 1498 1500 1502 1504 1503 1502 1499 1498 1496 1495 1495 1495 1495 1494 1493 1492 1492 1491 1491 1489 1488 1488 1486 1485 1484 1483 1483 1482 1482 1481 1481 1481 1481 1481 1481 1482 1482 1483 1483
1498 1499 1498 1494 1494 1495 1501 1508 1504 1502 1501 1504 1507 1509 1509 1507 1505 1502 1499 1497 1495 1494 1494 1493 1493 1492 1491 1490 1489 1488 1487 1486 1484 1483 1482 1480 1480 1479 1478 1478 1477 1478 1478 1478 1478 1478 1478 1478 1479
1497 1504 1500 1496 1495 1496 1500 1507 1507 1505 1505 1509 1512 1513 1513 1511 1508 1506 1503 1500 1498 1496 1494 1493 1491 1490 1489 1488 1487 1486 1484 1483 1482 1480 1479 1477 1476 1475 1474 1473 1473 1474 1474 1474 1474 1473 1473 1473 1473
1515 1510 1506 1503 1497 1499 1503 1507 1509 1509 1509 1514 1516 1517 1516 1514 1513 1511 1507 1504 1501 1498 1496 1493 1491 1489 1487 1486 1484 1483 1481 1480 1478 1477 1476 1474 1472 1471 1470 1469 1469 1469 1470 1470 1469 1469 1469 1469 1469
1512 1510 1509 1501 1497 1501 1503 1506 1511 1512 1514 1517 1520 1521 1520 1519 1517 1514 1510 1507 1503 1499 1496 1493 1490 1487 1485 1483 1481 1479 1477 1476 1474 1473 1471 1470 1468 1467 1466 1465 1465 1465 1465 1465 1465 1465 1464 1464 1465
1510 1509 1506 1501 1499 1502 1502 1505 1512 1515 1518 1521 1523 1523 1523 1521 1518 1515 1512 1509 1506 1502 1499 1494 1489 1485 1483 1480 1478 1475 1473 1471 1470 1468 1466 1465 1464 1463 1462 1462 1462 1462 1461 1461 1462 1462 1461 1461 1462
1511 1511 1513 1512 1505 1499 1499 1507 1517 1519 1521 1523 1525 1525 1524 1522 1520 1517 1514 1511 1508 1504 1500 1494 1489 1484 1481 1477 1473 1470 1467 1465 1464 1462 1461 1460 1459 1459 1458 1457 1458 1458 1457 1458 1458 1458 1458 1459 1459
1518 1511 1512 1511 1514 1510 1502 1514 1523 1521 1523 1525 1526 1526 1525 1523 1521 1518 1515 1511 1508 1504 1499 1493 1486 1482 1477 1473 1470 1466 1463 1461 1459 1457 1455 1454 1453 1453 1453 1453 1453 1453 1454 1454 1455 1455 1455 1455 1456
1518 1513 1508 1505 1510 1512 1505 1509 1513 1518 1523 1526 1526 1526 1525 1523 1520 1518 1514 1511 1506 1501 1495 1489 1484 1479 1475 1471 1468 1464 1460 1456 1453 1452 1450 1449 1448 1448 1448 1448 1449 1449 1449 1450 1450 1451 1451 1452 1453
1516 1509 1497 1495 1504 1515 1499 1504 1514 1521 1525 1526 1526 1526 1524 1522 1519 1516 1513 1508 1502 1496 1491 1486 1481 1477 1473 1469 1465 1461 1456 1452 1448 1446 1445 1444 1443 1443 1443 1443 1444 1445 1445 1445 1446 1447 1447 1449 1450
1518 1519 1516 1515 1512 1507 1497 1501 1522 1525 1525 1526 1526 1525 1523 1521 1517 1513 1508 1503 1498 1493 1489 1485 1480 1475 1470 1466 1462 1457 1452 1447 1443 1441 1440 1439 1438 1438 1437 1437 1439 1441 1441 1441 1442 1443 1444 1445 1446
1524 1523 1535 1539 1526 1513 1501 1507 1531 1523 1524 1525 1525 1524 1522 1519 1516 1512 1508 1503 1498 1493 1488 1482 1477 1472 1466 1462 1457 1453 1448 1442 1437 1435 1434 1433 1432 1432 1432 1432 1434 1436 1436 1437 1438 1439 1440 1441 1442
1529 1529 1528 1534 1527 1521 1503 1530 1529 1522 1524 1524 1524 1523 1522 1520 1516 1512 1507 1502 1497 1491 1485 1480 1474 1468 1463 1458 1453 1447 1442 1436 1430 1427 1426 1426 1426 1427 1428 1429 1430 1431 1432 1433 1433 1434 1435 1436 1437
1531 1532 1535 1533 1533 1532 1515 1510 1527 1526 1528 1527 1526 1525 1523 1520 1515 1510 1506 1501 1495 1489 1483 1477 1471 1466 1460 1454 1449 1443 1437 1431 1424 1420 1418 1418 1418 1419 1422 1424 1425 1427 1428 1428 1429 1429 1430 1431 1432
1535 1531 1532 1535 1533 1538 1532 1526 1528 1531 1530 1529 1528 1526 1522 1517 1513 1508 1503 1498 1492 1485 1479 1473 1467 1462 1456 1450 1445 1439 1432 1425 1419 1414 1411 1410 1411 1411 1414 1416 1420 1423 1424 1424 1424 1424 1424 1425 1426
1537 1537 1540 1547 1541 1538 1541 1535 1520 1525 1527 1527 1525 1522 1519 1516 1512 1507 1502 1496 1489 1482 1475 1470 1464 1458 1452 1447 1441 1434 1428 1421 1414 1409 1406 1405 1404 1405 1406 1408 1412 1416 1418 1419 1418 1418 1418 1419 1420